Kosmos-2398

operational
NORAD ID: 27818 Int'l Des: 2003-023 Owner: VMFR Country: RU
LEOCIRCULARPOLAR

关于 Kosmos-2398

正在加载描述...

实时位置

正在加载3D地球...

即将过境

高度历史

Altitude vs Time

uPlot chart will show altitude changes over time

两行轨道根数

1 27818U 03023A 26061.67519171 .00000056 00000-0 44992-4 0 9999
2 27818 82.9481 213.7862 0030180 249.9214 120.4195 13.72394629139137
Epoch: Mar 2, 2026 • Age: 38 hours

当前状态

高度 1010.5 km
速度 7.35 km/s
星下点 52.07°N, 16.1°E
发射日期 Jun 4, 2003
运行时间 22.7 years
类型 other

技术详情

分类 Payload
质量 800.00 kg
干质量 800.00 kg
总质量 800.00 kg
长度 5.10 m
直径 2.00 m
跨度 17.00 m
形状 Cyl + Ant
制造商 POL
平台类型 KAUR-1 11F627
阶段状态 Unknown Transfer Status
所有者/国家 VMFR/RU

大型星座

Loading constellations...